QPF
0.00 0.01 0.02 0.01 0.01 0.00 0.00 0.00 0.00 0.00 0.00 0.00 0.00 0.00 0.00 0.00 0.00 0.00 0.00 0.00 0.00 0.00 0.00 0.00 0.00 0.00 0.00 0.00 0.00 0.00 0.00 0.00 0.00 0.00 0.00 0.00 0.00 0.00 0.00 0.00 0.00 0.00 0.01 0.02
0.00 0.00 0.01 0.02 0.01 0.00 0.00 0.00 0.00 0.00 0.00 0.00 0.00 0.00 0.00 0.00 0.00 0.00 0.00 0.00 0.00 0.00 0.00 0.00 0.00 0.00 0.00 0.00 0.00 0.00 0.00 0.00 0.00 0.00 0.00 0.00 0.00 0.00 0.00 0.00 0.00 0.00 0.01 0.02
0.00 0.00 0.00 0.01 0.01 0.00 0.00 0.01 0.01 0.01 0.00 0.00 0.00 0.00 0.00 0.00 0.00 0.00 0.00 0.00 0.00 0.00 0.00 0.00 0.00 0.00 0.00 0.00 0.00 0.00 0.00 0.00 0.00 0.00 0.00 0.00 0.00 0.00 0.00 0.00 0.00 0.01 0.00 0.00
0.00 0.00 0.00 0.00 0.00 0.00 0.00 0.02 0.01 0.00 0.00 0.00 0.00 0.00 0.00 0.00 0.00 0.00 0.00 0.00 0.00 0.00 0.00 0.00 0.00 0.00 0.00 0.00 0.00 0.00 0.00 0.00 0.00 0.00 0.00 0.00 0.00 0.00 0.00 0.00 0.00 0.00 0.00 0.00
0.00 0.00 0.00 0.01 0.01 0.01 0.02 0.01 0.01 0.00 0.00 0.00 0.00 0.00 0.00 0.00 0.00 0.00 0.00 0.00 0.00 0.00 0.00 0.00 0.00 0.00 0.00 0.00 0.00 0.00 0.00 0.00 0.00 0.00 0.00 0.00 0.00 0.00 0.00 0.00 0.00 0.00 0.00 0.00
0.00 0.00 0.00 0.01 0.01 0.01 0.01 0.01 0.00 0.00 0.00 0.00 0.00 0.00 0.00 0.00 0.00 0.00 0.00 0.00 0.00 0.00 0.00 0.00 0.00 0.00 0.00 0.00 0.00 0.00 0.00 0.00 0.00 0.00 0.00 0.00 0.00 0.00 0.00 0.00 0.00 0.00 0.00 0.00
0.00 0.00 0.00 0.00 0.01 0.01 0.01 0.01 0.00 0.00 0.00 0.00 0.00 0.00 0.00 0.00 0.00 0.00 0.00 0.00 0.00 0.00 0.00 0.00 0.00 0.00 0.00 0.00 0.00 0.00 0.00 0.00 0.00 0.00 0.00 0.00 0.00 0.00 0.00 0.00 0.00 0.00 0.00 0.00
0.00 0.00 0.00 0.00 0.01 0.01 0.01 0.01 0.01 0.01 0.01 0.00 0.00 0.00 0.00 0.00 0.00 0.00 0.00 0.00 0.00 0.00 0.00 0.00 0.00 0.00 0.00 0.00 0.00 0.00 0.00 0.00 0.00 0.00 0.00 0.00 0.00 0.00 0.00 0.00 0.00 0.00 0.00 0.00
0.00 0.00 0.00 0.00 0.01 0.02 0.02 0.01 0.02 0.02 0.02 0.00 0.00 0.00 0.00 0.00 0.00 0.00 0.00 0.00 0.00 0.00 0.00 0.00 0.00 0.00 0.00 0.00 0.00 0.00 0.00 0.00 0.00 0.00 0.00 0.00 0.00 0.00 0.00 0.00 0.00 0.00 0.00 0.00
0.00 0.00 0.00 0.00 0.01 0.02 0.02 0.00 0.00 0.02 0.02 0.00 0.00 0.00 0.00 0.00 0.00 0.00 0.00 0.00 0.00 0.00 0.00 0.00 0.00 0.00 0.00 0.00 0.00 0.00 0.00 0.00 0.00 0.00 0.00 0.00 0.00 0.00 0.00 0.00 0.00 0.00 0.00 0.00
0.00 0.00 0.00 0.00 0.01 0.04 0.03 0.00 0.00 0.01 0.03 0.01 0.00 0.00 0.00 0.00 0.00 0.00 0.00 0.00 0.00 0.00 0.00 0.00 0.00 0.00 0.00 0.00 0.00 0.00 0.00 0.00 0.00 0.00 0.00 0.00 0.00 0.00 0.00 0.00 0.00 0.00 0.00 0.00
0.00 0.00 0.00 0.00 0.01 0.03 0.04 0.01 0.00 0.01 0.02 0.01 0.00 0.00 0.00 0.00 0.00 0.00 0.00 0.00 0.00 0.00 0.00 0.00 0.00 0.00 0.00 0.00 0.00 0.00 0.00 0.00 0.00 0.00 0.00 0.00 0.00 0.00 0.00 0.00 0.00 0.00 0.00 0.00
0.00 0.00 0.00 0.01 0.01 0.02 0.04 0.01 0.01 0.01 0.01 0.01 0.01 0.00 0.00 0.00 0.00 0.00 0.00 0.00 0.00 0.00 0.00 0.00 0.00 0.00 0.00 0.00 0.00 0.00 0.00 0.00 0.00 0.00 0.00 0.00 0.00 0.00 0.00 0.00 0.00 0.00 0.00 0.00
0.00 0.00 0.01 0.01 0.01 0.02 0.04 0.01 0.01 0.01 0.00 0.01 0.01 0.00 0.00 0.00 0.00 0.00 0.00 0.00 0.00 0.00 0.00 0.01 0.00 0.00 0.00 0.00 0.00 0.00 0.00 0.00 0.00 0.00 0.00 0.00 0.00 0.00 0.00 0.00 0.00 0.00 0.00 0.00
0.00 0.00 0.01 0.02 0.02 0.03 0.05 0.01 0.00 0.00 0.00 0.01 0.01 0.01 0.00 0.00 0.00 0.00 0.00 0.00 0.00 0.01 0.01 0.02 0.00 0.00 0.00 0.00 0.00 0.00 0.00 0.00 0.00 0.00 0.00 0.00 0.00 0.00 0.00 0.00 0.00 0.00 0.00 0.00
0.00 0.01 0.02 0.03 0.03 0.05 0.04 0.01 0.00 0.00 0.00 0.01 0.02 0.01 0.00 0.00 0.00 0.00 0.00 0.00 0.00 0.01 0.02 0.01 0.00 0.00 0.00 0.00 0.00 0.00 0.00 0.00 0.00 0.00 0.00 0.00 0.00 0.00 0.00 0.00 0.00 0.00 0.00 0.00
0.01 0.01 0.02 0.03 0.05 0.07 0.02 0.03 0.01 0.00 0.00 0.01 0.02 0.02 0.01 0.00 0.00 0.00 0.00 0.00 0.01 0.03 0.03 0.01 0.00 0.00 0.00 0.00 0.00 0.00 0.00 0.00 0.00 0.00 0.00 0.00 0.00 0.00 0.00 0.00 0.00 0.00 0.00 0.00
0.00 0.01 0.02 0.04 0.09 0.07 0.02 0.00 0.01 0.00 0.00 0.00 0.01 0.02 0.01 0.02 0.02 0.02 0.03 0.03 0.04 0.03 0.03 0.01 0.00 0.00 0.00 0.00 0.00 0.00 0.00 0.00 0.00 0.00 0.00 0.00 0.00 0.00 0.00 0.00 0.00 0.00 0.00 0.00
0.00 0.02 0.06 0.10 0.08 0.03 0.00 0.00 0.00 0.01 0.00 0.01 0.00 0.01 0.02 0.01 0.02 0.02 0.03 0.04 0.03 0.03 0.03 0.01 0.00 0.01 0.00 0.00 0.00 0.00 0.00 0.00 0.00 0.00 0.00 0.00 0.00 0.00 0.00 0.00 0.00 0.00 0.00 0.00
0.02 0.08 0.07 0.06 0.01 0.00 0.03 0.04 0.03 0.02 0.00 0.00 0.01 0.00 0.00 0.01 0.01 0.03 0.03 0.02 0.02 0.01 0.01 0.01 0.01 0.00 0.00 0.00 0.00 0.00 0.00 0.00 0.00 0.00 0.00 0.00 0.00 0.00 0.00 0.00 0.00 0.00 0.00 0.00
0.07 0.04 0.03 0.08 0.03 0.03 0.04 0.03 0.03 0.02 0.01 0.01 0.01 0.01 0.00 0.00 0.00 0.01 0.01 0.02 0.01 0.01 0.00 0.00 0.00 0.00 0.00 0.00 0.00 0.00 0.00 0.00 0.00 0.00 0.00 0.00 0.00 0.00 0.00 0.00 0.00 0.00 0.00 0.00
0.02 0.04 0.06 0.09 0.04 0.04 0.04 0.05 0.03 0.02 0.01 0.01 0.01 0.01 0.00 0.00 0.01 0.01 0.01 0.01 0.00 0.00 0.00 0.00 0.00 0.00 0.00 0.00 0.00 0.00 0.00 0.00 0.00 0.00 0.00 0.00 0.00 0.00 0.00 0.00 0.00 0.00 0.00 0.00
0.06 0.06 0.05 0.03 0.03 0.03 0.04 0.03 0.04 0.02 0.00 0.01 0.01 0.02 0.01 0.02 0.02 0.03 0.01 0.01 0.01 0.01 0.01 0.00 0.00 0.00 0.00 0.00 0.00 0.00 0.00 0.00 0.00 0.00 0.00 0.00 0.00 0.00 0.00 0.00 0.00 0.00 0.00 0.00
0.07 0.04 0.04 0.04 0.02 0.02 0.02 0.02 0.02 0.01 0.00 0.00 0.00 0.00 0.01 0.01 0.02 0.01 0.02 0.01 0.01 0.00 0.00 0.00 0.00 0.00 0.00 0.00 0.00 0.00 0.00 0.00 0.00 0.00 0.00 0.00 0.00 0.00 0.00 0.00 0.00 0.00 0.00 0.00
0.04 0.04 0.03 0.03 0.01 0.00 0.01 0.01 0.01 0.00 0.00 0.00 0.00 0.01 0.01 0.02 0.01 0.02 0.02 0.01 0.00 0.00 0.00 0.00 0.00 0.00 0.00 0.00 0.00 0.00 0.00 0.00 0.00 0.00 0.00 0.00 0.00 0.00 0.00 0.00 0.00 0.00 0.00 0.00
0.02 0.03 0.02 0.02 0.03 0.02 0.05 0.02 0.01 0.00 0.00 0.00 0.00 0.02 0.04 0.02 0.01 0.01 0.01 0.00 0.00 0.00 0.00 0.00 0.00 0.00 0.00 0.00 0.00 0.00 0.00 0.00 0.00 0.00 0.00 0.00 0.00 0.00 0.00 0.00 0.00 0.00 0.00 0.00
0.02 0.02 0.03 0.03 0.01 0.01 0.03 0.02 0.00 0.00 0.00 0.01 0.02 0.02 0.02 0.01 0.01 0.00 0.00 0.00 0.00 0.01 0.00 0.00 0.00 0.00 0.00 0.00 0.00 0.00 0.00 0.00 0.00 0.00 0.00 0.00 0.00 0.00 0.00 0.00 0.00 0.00 0.00 0.00
MSLP
1020.74 1020.78 1020.42 1020.42 1020.90 1021.42 1021.82 1020.65 1019.04 1018.71 1018.96 1019.36 1018.25 1017.41 1016.34 1015.21 1013.51 1013.28 1012.24 1012.10 1011.60 1011.60 1011.58 1012.69 1013.19 1013.86 1014.91 1016.32 1016.55 1016.65 1017.17 1016.79 1016.32 1016.20 1016.69 1017.15 1017.48 1017.92 1018.49 1019.59 1019.95 1019.90 1019.89 1019.92
1020.24 1020.38 1020.60 1020.46 1020.37 1020.83 1020.58 1020.16 1018.57 1018.47 1018.84 1018.16 1017.74 1017.14 1016.23 1015.24 1014.25 1013.27 1012.88 1012.49 1012.02 1012.02 1012.05 1013.06 1013.30 1014.45 1016.28 1017.08 1017.19 1017.46 1017.72 1017.65 1016.98 1017.08 1017.34 1017.44 1017.43 1017.87 1018.37 1019.10 1019.66 1019.54 1019.32 1018.94
1019.90 1019.82 1020.27 1020.44 1020.36 1020.30 1020.67 1019.84 1018.55 1018.52 1018.37 1017.67 1017.08 1016.67 1015.98 1015.17 1014.32 1013.39 1013.04 1012.58 1012.37 1012.51 1012.60 1013.49 1013.75 1014.94 1016.84 1017.64 1017.76 1018.56 1018.51 1017.67 1017.18 1016.79 1016.61 1016.85 1016.92 1017.30 1017.55 1018.21 1018.52 1017.92 1017.72 1017.37
1019.50 1019.54 1019.82 1019.86 1020.21 1019.92 1020.71 1019.65 1018.11 1017.35 1017.59 1017.47 1016.75 1015.90 1015.09 1014.48 1013.84 1013.30 1012.90 1012.72 1012.50 1012.65 1013.05 1013.64 1014.14 1014.88 1016.80 1017.90 1018.75 1018.96 1018.74 1018.29 1017.67 1017.47 1017.27 1017.11 1016.82 1016.64 1016.75 1016.89 1017.43 1017.23 1016.70 1016.55
1019.02 1019.01 1019.09 1019.54 1019.77 1019.88 1019.96 1018.75 1017.79 1016.62 1016.83 1016.65 1016.47 1015.13 1014.35 1013.63 1013.37 1012.91 1012.59 1012.58 1012.54 1012.71 1013.02 1013.55 1014.15 1014.49 1016.06 1017.02 1018.48 1018.64 1018.75 1018.63 1018.41 1018.64 1018.02 1017.35 1016.76 1016.31 1016.09 1015.90 1015.83 1016.00 1016.14 1015.90
1018.44 1018.58 1018.70 1018.89 1019.31 1019.72 1018.73 1018.65 1017.07 1016.74 1016.31 1015.43 1015.24 1014.31 1013.88 1013.40 1012.78 1012.48 1012.52 1012.43 1012.57 1012.54 1012.81 1013.56 1014.08 1014.49 1015.65 1016.22 1017.31 1018.10 1018.70 1019.13 1019.25 1018.77 1017.96 1017.39 1016.50 1015.21 1015.07 1015.00 1015.05 1015.14 1015.35 1015.60
1017.68 1017.89 1018.10 1018.25 1018.55 1019.06 1019.36 1018.38 1017.81 1016.72 1015.86 1015.07 1013.88 1013.73 1013.62 1012.94 1012.57 1012.20 1012.18 1012.15 1012.28 1012.71 1013.28 1014.50 1015.43 1015.55 1016.14 1016.94 1017.15 1017.75 1018.40 1019.16 1019.61 1019.42 1018.83 1017.39 1014.80 1014.13 1013.97 1014.15 1014.22 1014.60 1014.90 1015.44
1016.76 1017.12 1017.41 1017.63 1017.81 1018.36 1019.02 1019.37 1017.99 1016.77 1015.53 1014.82 1013.70 1012.62 1012.34 1012.72 1012.31 1011.94 1011.77 1012.13 1012.16 1012.76 1014.20 1016.52 1017.78 1018.45 1018.53 1018.22 1017.74 1017.62 1018.00 1018.90 1019.88 1019.84 1018.53 1016.18 1014.57 1013.68 1013.58 1013.58 1013.90 1014.13 1014.64 1015.23
1015.73 1016.20 1016.58 1016.91 1017.22 1017.63 1018.61 1018.89 1018.86 1018.14 1016.16 1013.57 1013.42 1012.26 1011.65 1011.58 1011.81 1011.94 1011.62 1012.16 1012.64 1013.15 1014.80 1016.63 1017.31 1017.64 1017.57 1018.10 1017.92 1017.64 1018.17 1018.61 1019.47 1019.81 1018.33 1015.85 1013.39 1013.08 1013.41 1013.82 1013.90 1013.79 1014.41 1015.16
1014.62 1015.20 1015.74 1016.15 1016.51 1016.98 1018.02 1018.16 1018.24 1018.05 1015.69 1013.98 1013.02 1011.88 1011.42 1011.06 1011.48 1011.67 1011.83 1012.53 1013.10 1013.51 1014.62 1016.19 1016.57 1015.99 1015.76 1016.21 1016.53 1017.07 1017.50 1018.40 1018.58 1018.76 1017.79 1015.36 1013.33 1013.06 1013.68 1014.35 1013.68 1012.90 1014.10 1015.27
1013.46 1014.08 1014.72 1015.28 1015.82 1016.25 1017.06 1017.47 1017.91 1018.01 1016.20 1013.71 1012.68 1011.81 1011.43 1010.86 1010.64 1011.27 1011.67 1013.10 1013.25 1013.85 1014.54 1015.37 1015.45 1014.96 1014.23 1014.36 1014.58 1015.27 1016.07 1017.44 1017.76 1017.98 1017.06 1014.93 1012.98 1013.03 1013.57 1013.40 1013.70 1013.99 1014.77 1015.72
1012.28 1012.92 1013.71 1014.37 1014.90 1015.46 1016.14 1016.76 1017.09 1017.63 1017.56 1014.11 1012.00 1011.20 1011.36 1010.91 1010.70 1011.08 1011.50 1011.82 1012.39 1012.80 1013.58 1014.02 1014.00 1013.85 1013.15 1013.20 1013.15 1014.11 1014.75 1014.73 1014.98 1015.25 1014.13 1012.87 1011.92 1012.51 1013.28 1013.71 1014.03 1014.72 1015.37 1015.93
1011.12 1011.80 1012.71 1013.48 1014.17 1014.64 1015.19 1015.99 1016.51 1016.91 1016.75 1015.04 1012.38 1010.59 1010.75 1010.96 1011.30 1011.32 1011.20 1011.50 1011.69 1012.15 1012.51 1012.93 1012.87 1012.73 1012.38 1012.25 1011.94 1012.39 1013.10 1013.47 1013.21 1013.68 1012.82 1012.18 1012.23 1012.36 1013.04 1013.73 1014.12 1014.75 1015.49 1016.20
1010.21 1010.83 1011.78 1012.70 1013.42 1013.97 1014.57 1015.33 1015.99 1016.49 1016.19 1013.88 1011.05 1010.29 1010.15 1010.63 1011.10 1011.34 1011.75 1011.48 1011.23 1011.89 1012.48 1012.66 1012.75 1012.41 1011.54 1011.35 1010.88 1010.74 1011.15 1011.88 1012.23 1012.19 1011.91 1011.78 1011.99 1012.25 1012.78 1013.48 1014.28 1014.79 1015.44 1016.07
1009.02 1009.81 1010.91 1011.86 1012.73 1013.28 1013.82 1014.67 1015.16 1015.71 1016.09 1013.37 1010.81 1010.32 1009.92 1010.22 1010.71 1011.21 1010.95 1011.18 1011.43 1011.68 1012.18 1012.68 1012.74 1012.35 1011.84 1011.41 1011.16 1010.28 1009.82 1010.37 1010.93 1010.82 1011.39 1011.46 1011.63 1012.12 1012.46 1013.03 1013.96 1014.83 1015.47 1016.15
1007.84 1008.98 1010.15 1011.21 1011.93 1012.74 1013.78 1013.94 1014.30 1014.76 1015.49 1015.09 1011.07 1009.22 1009.74 1010.10 1010.79 1011.17 1011.21 1011.32 1011.49 1011.91 1012.43 1012.69 1012.30 1011.87 1011.89 1011.83 1010.87 1010.30 1009.81 1009.64 1009.96 1010.38 1010.76 1010.93 1011.23 1011.76 1012.15 1012.70 1013.45 1014.43 1015.40 1015.94
1007.21 1008.41 1009.57 1010.52 1011.32 1012.10 1012.37 1012.09 1012.35 1012.44 1014.72 1014.49 1010.83 1009.22 1009.24 1010.02 1010.60 1010.90 1011.27 1011.22 1011.48 1012.06 1012.70 1012.59 1012.27 1011.65 1011.88 1011.66 1010.45 1009.52 1009.44 1009.58 1009.74 1010.11 1010.63 1010.81 1011.28 1011.57 1012.33 1012.79 1013.17 1014.12 1015.12 1015.92
1006.69 1008.07 1009.20 1010.04 1010.80 1011.60 1011.91 1011.50 1011.83 1013.00 1013.48 1013.06 1009.77 1008.34 1009.07 1009.65 1010.19 1010.88 1011.08 1011.49 1012.20 1012.47 1012.77 1012.62 1012.15 1011.86 1011.87 1011.00 1010.30 1009.96 1009.60 1009.51 1009.50 1009.70 1010.32 1010.81 1011.17 1011.77 1012.43 1013.13 1013.27 1014.07 1015.21 1016.28
1006.53 1007.85 1009.04 1010.03 1010.40 1010.36 1009.80 1010.33 1011.30 1012.25 1012.93 1010.99 1008.57 1006.83 1007.55 1008.86 1009.69 1010.86 1011.67 1011.87 1012.37 1012.21 1012.24 1012.14 1011.88 1011.12 1009.91 1009.64 1009.78 1009.51 1009.48 1009.27 1009.32 1009.73 1010.07 1010.55 1010.96 1011.77 1012.34 1013.24 1013.62 1014.52 1015.58 1016.61
1006.37 1007.91 1008.48 1008.33 1008.56 1008.81 1009.20 1009.94 1010.22 1010.51 1010.68 1010.52 1006.90 1004.98 1006.45 1007.71 1008.93 1010.52 1011.33 1011.46 1011.47 1011.68 1011.55 1011.53 1010.75 1009.18 1009.11 1008.90 1009.05 1009.15 1009.12 1009.04 1008.98 1009.13 1009.70 1010.30 1010.79 1011.53 1012.21 1012.94 1013.79 1014.79 1015.77 1016.58
1006.12 1006.83 1006.78 1006.47 1007.05 1008.66 1008.89 1008.15 1007.80 1007.26 1006.91 1006.62 1005.45 1003.80 1004.80 1007.11 1007.75 1009.33 1010.41 1010.95 1011.16 1010.76 1010.21 1010.50 1008.93 1007.40 1007.76 1008.36 1008.11 1008.30 1008.52 1008.42 1008.30 1008.52 1009.26 1010.18 1010.89 1011.65 1012.32 1013.21 1014.12 1015.10 1015.86 1016.87
1004.78 1005.18 1005.60 1007.02 1006.94 1006.92 1006.90 1005.71 1004.62 1004.20 1003.66 1003.56 1003.27 1003.46 1004.22 1006.24 1007.95 1008.92 1009.81 1009.98 1010.07 1009.16 1008.86 1009.11 1006.74 1005.93 1005.79 1006.05 1006.23 1006.79 1007.47 1007.96 1008.11 1008.70 1009.20 1010.06 1010.94 1011.86 1012.56 1013.63 1014.69 1015.70 1016.75 1017.95
1004.90 1005.24 1005.25 1006.03 1004.65 1004.27 1003.31 1001.20 1001.65 1000.99 1001.15 1001.05 1001.79 1003.50 1004.28 1006.60 1007.93 1008.50 1009.06 1008.87 1008.73 1008.58 1008.42 1007.00 1005.18 1004.99 1004.71 1004.71 1004.88 1005.69 1006.62 1007.39 1008.24 1008.88 1009.48 1010.21 1011.28 1012.22 1013.15 1014.36 1015.76 1016.80 1018.10 1019.21
1003.93 1004.34 1003.97 1003.61 1001.28 1000.47 999.97 998.83 999.36 998.45 999.05 1000.12 1001.32 1002.36 1003.62 1005.33 1006.77 1007.88 1007.81 1007.60 1007.52 1007.34 1006.33 1004.58 1004.45 1004.13 1003.97 1004.19 1004.71 1004.97 1005.75 1006.95 1008.23 1009.00 1009.83 1010.81 1012.06 1013.62 1014.48 1015.71 1016.90 1017.81 1019.23 1020.40
1003.30 1003.25 1002.40 1000.25 998.51 998.09 997.55 997.17 997.53 997.24 996.86 998.84 1000.82 1002.06 1003.49 1005.01 1006.44 1006.44 1006.55 1006.44 1005.80 1004.82 1003.58 1003.49 1003.51 1003.45 1003.96 1004.43 1004.91 1005.18 1005.62 1007.04 1008.42 1009.44 1011.16 1012.48 1013.58 1014.57 1016.08 1017.04 1017.79 1018.86 1020.07 1020.79
1002.61 1001.98 1000.21 997.81 997.17 996.60 996.62 996.42 996.74 996.59 997.18 999.04 999.92 1002.02 1003.75 1004.48 1004.84 1005.06 1005.11 1004.77 1003.68 1002.86 1003.00 1002.98 1003.11 1003.64 1004.33 1004.81 1005.23 1005.60 1006.33 1007.58 1009.16 1010.87 1012.10 1013.43 1014.31 1015.23 1016.56 1017.51 1018.57 1019.61 1020.25 1020.67
1001.15 999.51 998.90 997.80 995.82 995.85 995.97 995.82 995.75 996.76 997.50 998.95 1000.21 1001.25 1002.32 1002.85 1003.33 1003.29 1003.18 1002.79 1002.28 1002.30 1002.83 1003.27 1003.47 1004.10 1004.79 1005.36 1005.78 1006.27 1007.12 1008.38 1010.13 1011.57 1012.92 1013.97 1014.92 1015.93 1016.97 1018.10 1019.19 1019.63 1020.05 1020.31
Thickness
5417 5423 5431 5435 5437 5438 5440 5455 5467 5483 5483 5483 5501 5503 5529 5540 5557 5560 5568 5571 5578 5579 5586 5573 5576 5574 5572 5564 5564 5559 5556 5560 5555 5559 5557 5553 5546 5538 5534 5512 5511 5512 5505 5500
5403 5409 5414 5421 5427 5429 5437 5443 5468 5473 5472 5470 5478 5508 5520 5531 5540 5551 5554 5558 5570 5576 5575 5562 5576 5571 5556 5552 5555 5553 5551 5545 5546 5541 5545 5545 5541 5539 5536 5526 5515 5507 5503 5504
5389 5395 5400 5407 5414 5418 5421 5435 5441 5451 5464 5481 5491 5500 5509 5517 5534 5544 5550 5556 5563 5563 5564 5563 5563 5560 5545 5544 5550 5536 5538 5549 5548 5547 5548 5548 5542 5541 5541 5530 5518 5526 5523 5524
5376 5382 5386 5393 5398 5405 5404 5419 5437 5456 5449 5461 5483 5502 5514 5518 5524 5537 5546 5546 5553 5554 5538 5551 5552 5558 5541 5537 5526 5533 5538 5535 5548 5547 5546 5543 5543 5544 5542 5538 5528 5523 5531 5527
5363 5370 5375 5378 5383 5388 5394 5412 5426 5454 5458 5462 5468 5492 5503 5516 5521 5529 5535 5538 5547 5549 5545 5548 5540 5553 5542 5536 5530 5532 5534 5532 5535 5499 5534 5538 5536 5541 5542 5543 5542 5537 5533 5531
5350 5356 5363 5367 5369 5369 5390 5402 5424 5432 5442 5464 5467 5482 5498 5506 5519 5527 5531 5535 5535 5538 5545 5547 5550 5554 5548 5548 5536 5530 5527 5521 5520 5522 5536 5534 5525 5540 5543 5544 5544 5541 5528 5533
5335 5341 5348 5355 5358 5359 5369 5389 5402 5418 5430 5450 5472 5479 5485 5498 5508 5516 5525 5531 5530 5537 5538 5535 5532 5538 5539 5535 5536 5535 5525 5519 5516 5514 5517 5508 5549 5558 5554 5547 5547 5544 5539 5532
5317 5325 5331 5340 5346 5350 5353 5361 5382 5405 5421 5438 5456 5477 5485 5487 5498 5505 5514 5518 5527 5528 5519 5502 5481 5484 5489 5491 5520 5528 5529 5519 5497 5501 5513 5538 5547 5553 5549 5544 5539 5544 5536 5532
5297 5306 5315 5324 5332 5338 5340 5347 5358 5372 5398 5433 5446 5464 5478 5482 5485 5491 5504 5510 5513 5512 5505 5491 5486 5488 5506 5487 5503 5521 5519 5519 5507 5490 5505 5524 5555 5557 5554 5545 5524 5544 5537 5528
5280 5287 5296 5306 5316 5324 5327 5338 5347 5357 5387 5419 5434 5448 5463 5476 5478 5482 5490 5493 5494 5504 5495 5480 5491 5511 5522 5506 5506 5502 5511 5501 5503 5499 5500 5529 5553 5553 5544 5516 5532 5549 5536 5524
5274 5277 5281 5289 5299 5309 5316 5328 5335 5343 5370 5406 5422 5439 5449 5463 5475 5470 5480 5473 5479 5483 5481 5482 5493 5507 5523 5524 5527 5517 5513 5495 5493 5497 5498 5506 5549 5545 5528 5538 5536 5533 5524 5515
5273 5273 5275 5278 5285 5295 5304 5314 5326 5331 5337 5383 5413 5429 5438 5452 5463 5468 5467 5477 5482 5488 5485 5494 5502 5506 5520 5523 5522 5524 5514 5522 5518 5518 5526 5545 5554 5543 5536 5532 5528 5521 5514 5509
5271 5271 5270 5272 5274 5282 5291 5304 5314 5321 5332 5358 5390 5421 5432 5439 5445 5450 5455 5467 5477 5480 5487 5491 5500 5502 5515 5515 5524 5524 5523 5527 5528 5524 5535 5542 5541 5541 5534 5527 5522 5518 5510 5501
5266 5268 5265 5265 5266 5271 5280 5290 5303 5311 5326 5355 5394 5410 5422 5432 5434 5442 5448 5460 5471 5474 5477 5479 5484 5494 5516 5517 5529 5529 5533 5529 5526 5528 5535 5536 5536 5533 5529 5524 5516 5511 5505 5498
5264 5264 5261 5258 5258 5264 5273 5280 5292 5305 5318 5356 5389 5399 5413 5421 5428 5432 5442 5450 5456 5463 5463 5461 5470 5489 5499 5508 5512 5523 5538 5531 5523 5526 5528 5529 5529 5528 5525 5520 5511 5504 5498 5491
5262 5260 5256 5251 5252 5256 5257 5265 5281 5299 5312 5321 5367 5398 5398 5410 5416 5420 5431 5437 5446 5450 5449 5455 5472 5485 5487 5486 5500 5518 5528 5534 5533 5528 5529 5530 5528 5526 5522 5516 5511 5502 5492 5487
5258 5255 5251 5247 5246 5247 5253 5272 5293 5312 5310 5322 5361 5373 5390 5399 5404 5411 5419 5429 5437 5437 5435 5445 5462 5477 5474 5479 5496 5519 5524 5524 5525 5526 5522 5522 5518 5517 5513 5510 5507 5498 5489 5482
5255 5250 5245 5242 5242 5243 5247 5269 5286 5295 5312 5322 5365 5367 5375 5385 5391 5394 5411 5414 5417 5420 5424 5436 5449 5462 5463 5467 5493 5505 5515 5516 5516 5520 5518 5514 5514 5509 5505 5499 5499 5491 5481 5471
5249 5244 5238 5235 5235 5242 5268 5276 5278 5289 5303 5331 5356 5374 5375 5382 5389 5389 5391 5399 5394 5415 5415 5426 5440 5454 5462 5477 5489 5501 5504 5507 5509 5509 5511 5510 5507 5501 5498 5491 5488 5480 5470 5461
5242 5234 5232 5238 5249 5262 5264 5266 5273 5289 5300 5308 5358 5390 5372 5385 5389 5382 5386 5393 5401 5399 5413 5425 5431 5458 5474 5483 5492 5496 5497 5502 5505 5504 5504 5501 5499 5496 5492 5487 5481 5473 5464 5457
5232 5231 5244 5262 5259 5251 5256 5269 5283 5310 5326 5335 5363 5387 5386 5389 5390 5384 5386 5382 5391 5392 5417 5419 5439 5462 5470 5477 5490 5494 5494 5499 5503 5506 5502 5496 5493 5488 5484 5479 5472 5464 5459 5448
5244 5251 5256 5248 5254 5257 5260 5286 5315 5327 5347 5354 5375 5384 5395 5391 5383 5380 5380 5384 5394 5404 5426 5420 5448 5473 5487 5489 5493 5494 5494 5493 5496 5495 5494 5491 5486 5481 5477 5470 5463 5454 5439 5424
5242 5246 5252 5244 5272 5272 5285 5317 5330 5351 5356 5378 5380 5371 5382 5374 5374 5375 5377 5381 5387 5410 5400 5425 5466 5479 5488 5495 5497 5494 5492 5490 5486 5485 5485 5483 5477 5472 5467 5457 5438 5428 5417 5407
5250 5250 5260 5262 5294 5311 5321 5345 5352 5378 5386 5382 5386 5388 5388 5386 5377 5370 5375 5389 5397 5392 5410 5447 5466 5478 5483 5488 5488 5492 5490 5485 5479 5477 5475 5468 5455 5436 5432 5422 5415 5406 5394 5385
5256 5265 5271 5299 5331 5345 5353 5369 5379 5394 5412 5404 5394 5395 5393 5383 5364 5379 5382 5378 5382 5415 5450 5461 5467 5475 5473 5475 5477 5480 5483 5470 5468 5463 5443 5431 5426 5420 5408 5404 5399 5390 5379 5373
5266 5275 5295 5330 5349 5355 5364 5383 5388 5402 5404 5399 5403 5383 5371 5371 5378 5379 5375 5385 5409 5444 5450 5457 5463 5462 5458 5462 5464 5468 5467 5460 5449 5434 5426 5418 5412 5407 5397 5393 5382 5373 5368 5364
5278 5299 5309 5331 5373 5372 5381 5394 5404 5402 5399 5387 5389 5381 5379 5389 5380 5388 5403 5417 5440 5441 5441 5444 5448 5446 5448 5449 5451 5451 5450 5443 5430 5420 5412 5406 5400 5393 5384 5376 5367 5364 5360 5355